Location: Eaton
(41.3139°N, 82.0207°W)
Time: 13:21:01
(UTC+00:00)

Cosmos 1486 Rocket - Pass Details

Date: 17 June 2021
Orbit: 759 x 783 km, 74.1° (Epoch: 30 July)

Event Time Altitude Azimuth Distance (km) Brightness Sun altitude
Rises 04:54:22 0° 334° (NNW) 3,233 8.5 -24.8°
Reaches altitude 10° 04:56:48 10° 330° (NNW) 2,301 7.4 -24.9°
Maximum altitude 05:01:48 48° 256° (WSW) 982 4.4 -25.0°
Enters shadow 05:02:04 48° 246° (WSW) 988 4.4 -25.0°
